Sexton Summit, OR

4:04 AM PDT on March 30, 2017 (GMT -0700)
Sexton Summit

Weather History for KSXT - June, 2013

Change the Weather History Date:

Thursday, June 13, 2013

  Actual Average Record
Temperature  
Mean Temperature 47 °F -  
Max Temperature 57 °F 65 °F 82 °F (2002)
Min Temperature 37 °F 43 °F 37 °F (2013)
Degree Days  
Heating Degree Days 18    
Moisture  
Dew Point 39 °F    
Average Humidity 86    
Maximum Humidity 100    
Minimum Humidity 49    
Precipitation  
Precipitation 0.00 in - - ()
Sea Level Pressure  
Sea Level Pressure 30.20 in    
Wind  
Wind Speed 4 mph (North)    
Max Wind Speed 10 mph    
Max Gust Speed 17 mph    
Visibility 6 miles    
Events Fog    
Averages and records for this station are not official NWS values.
T = Trace of Precipitation, MM = Missing Value Source: NWS Daily Summary

Daily Weather History Graph

Daily Weather History Graph

Search for Another Location

Airport or City:

Trip Planner

Search our weather history database for the weather conditions in past years. The results will help you decide how hot, cold, wet, or windy it might be!

Date:

Astronomy

Jun. 13, 2013 Rise Set
Actual Time 5:35 AM PDT 8:52 PM PDT
Civil Twilight 5:00 AM PDT 9:27 PM PDT
Nautical Twilight 4:15 AM PDT 10:12 PM PDT
Astronomical Twilight 3:19 AM PDT 11:07 PM PDT
Moon 10:22 AM PDT (6/13) 11:55 PM PDT (6/13)
Length of Visible Light 16h 27m
Length of Day
15h 17m
Waxing Crescent, 22% of the Moon is Illuminated
Jun 13
Waxing Crescent
Jun 16
First Quarter
Jun 23
Full
Jun 29
Last Quarter
Jul 8
New

Hourly Weather History & Observations

Time (PDT) Temp. Windchill Dew Point Humidity Pressure Visibility Wind Dir Wind Speed Gust Speed Precip Events Conditions
12:22 AM 39.2 °F 35.0 °F 39.2 °F 100% 30.17 in 10.0 mi North 5.8 mph - N/A   Overcast
12:38 AM 39.2 °F 34.2 °F 39.2 °F 100% 30.17 in 10.0 mi North 6.9 mph - N/A   Overcast
12:56 AM 39.9 °F 35.8 °F 39.0 °F 97% 30.16 in 10.0 mi Variable 5.8 mph - N/A   Overcast
1:20 AM 39.2 °F 35.0 °F 39.2 °F 100% 30.17 in 1.8 mi NNW 5.8 mph - N/A   Overcast
1:33 AM 39.2 °F 35.9 °F 39.2 °F 100% 30.17 in 3.0 mi Variable 4.6 mph - N/A   Overcast
1:45 AM 39.2 °F 35.9 °F 39.2 °F 100% 30.17 in 1.8 mi Variable 4.6 mph - N/A   Overcast
1:54 AM 39.2 °F 37.0 °F 39.2 °F 100% 30.17 in 1.0 mi North 3.5 mph - N/A   Mist
1:56 AM 39.9 °F 37.8 °F 39.0 °F 97% 30.15 in 1.0 mi Variable 3.5 mph - N/A   Mist
2:12 AM 39.2 °F 37.0 °F 39.2 °F 100% 30.17 in 0.8 mi Variable 3.5 mph - N/A   Mist
2:19 AM 39.2 °F 37.0 °F 39.2 °F 100% 30.17 in 0.8 mi North 3.5 mph - N/A   Mist
2:43 AM 39.2 °F - 39.2 °F 100% 30.18 in 1.5 mi Calm Calm - N/A   Overcast
2:53 AM 39.2 °F - 39.2 °F 100% 30.18 in 0.8 mi Calm Calm - N/A   Mist
2:56 AM 39.9 °F 36.7 °F 39.0 °F 97% 30.15 in 1.0 mi Variable 4.6 mph - N/A   Mist
3:08 AM 39.2 °F 37.0 °F 39.2 °F 100% 30.18 in 0.8 mi Variable 3.5 mph - N/A   Mist
3:20 AM 39.2 °F - 39.2 °F 100% 30.18 in 1.2 mi Calm Calm - N/A   Overcast
3:43 AM 39.2 °F 37.0 °F 39.2 °F 100% 30.18 in 0.8 mi Variable 3.5 mph - N/A   Mist
3:50 AM 39.2 °F - 39.2 °F 100% 30.18 in 1.5 mi Calm Calm - N/A   Overcast
3:56 AM 39.0 °F - 39.0 °F 100% 30.15 in 1.0 mi Calm Calm - N/A   Mist
4:04 AM 39.2 °F - 39.2 °F 100% 30.18 in 0.8 mi Calm Calm - N/A   Mist
4:56 AM 39.9 °F - 39.0 °F 97% 30.16 in 0.8 mi Calm Calm - N/A   Mist
5:33 AM 39.2 °F 37.0 °F 39.2 °F 100% 30.19 in 0.2 mi Variable 3.5 mph - N/A Fog Fog
5:56 AM 37.9 °F 34.4 °F 37.9 °F 100% 30.17 in 0.2 mi North 4.6 mph - N/A Fog Fog
6:56 AM 37.9 °F 34.4 °F 37.9 °F 100% 30.19 in 0.2 mi NNW 4.6 mph - N/A Fog Fog
7:48 AM 39.2 °F - 37.4 °F 93% 30.20 in 1.0 mi Calm Calm - N/A   Overcast
7:51 AM 39.2 °F - 39.2 °F 100% 30.20 in 2.0 mi Calm Calm - N/A   Overcast
7:56 AM 39.0 °F - 39.0 °F 100% 30.20 in 10.0 mi Calm Calm - N/A   Overcast
8:03 AM 39.2 °F - 37.4 °F 93% 30.20 in 10.0 mi Calm Calm - N/A   Overcast
8:45 AM 44.6 °F - 39.2 °F 81% 30.20 in 10.0 mi Calm Calm - N/A   Overcast
8:56 AM 43.0 °F - 39.9 °F 89% 30.21 in 10.0 mi Calm Calm - N/A   Mostly Cloudy
9:12 AM 42.8 °F - 39.2 °F 87% 30.21 in 10.0 mi Calm Calm - N/A   Mostly Cloudy
9:40 AM 44.6 °F - 39.2 °F 81% 30.22 in 10.0 mi Calm Calm - N/A   Overcast
9:56 AM 45.0 °F - 39.0 °F 80% 30.22 in 10.0 mi Calm Calm - N/A   Overcast
10:14 AM 44.6 °F - 39.2 °F 81% 30.22 in 10.0 mi Calm Calm - N/A   Overcast
10:56 AM 50.0 °F - 39.9 °F 68% 30.22 in 10.0 mi Variable 3.5 mph - N/A   Mostly Cloudy
11:56 AM 52.0 °F - 39.9 °F 63% 30.22 in 10.0 mi Variable 3.5 mph - N/A   Partly Cloudy
12:42 PM 50.0 °F - 39.2 °F 66% 30.24 in 10.0 mi Variable 3.5 mph - N/A   Mostly Cloudy
12:56 PM 52.0 °F - 39.9 °F 63% 30.23 in 10.0 mi Variable 5.8 mph - N/A   Mostly Cloudy
1:16 PM 51.8 °F - 39.2 °F 62% 30.25 in 10.0 mi Variable 4.6 mph - N/A   Mostly Cloudy
1:40 PM 55.4 °F - 41.0 °F 58% 30.25 in 10.0 mi Variable 4.6 mph - N/A   Scattered Clouds
1:56 PM 54.0 °F - 39.9 °F 59% 30.24 in 10.0 mi Variable 6.9 mph - N/A   Partly Cloudy
2:56 PM 57.0 °F - 39.9 °F 53% 30.22 in 10.0 mi Variable 5.8 mph - N/A   Scattered Clouds
3:56 PM 57.0 °F - 37.9 °F 49% 30.23 in 10.0 mi Variable 4.6 mph - N/A   Clear
4:56 PM 55.9 °F - 37.9 °F 51% 30.23 in 10.0 mi Calm Calm - N/A   Partly Cloudy
5:56 PM 54.0 °F - 37.9 °F 55% 30.25 in 10.0 mi Calm Calm - N/A   Partly Cloudy
6:56 PM 53.1 °F - 37.9 °F 57% 30.25 in 10.0 mi Variable 3.5 mph - N/A   Scattered Clouds
7:56 PM 50.0 °F - 39.0 °F 66% 30.26 in 10.0 mi Variable 3.5 mph - N/A   Clear
8:56 PM 46.0 °F 43.9 °F 39.9 °F 79% 30.27 in 10.0 mi Variable 4.6 mph - N/A   Clear
9:56 PM 45.0 °F 39.7 °F 39.9 °F 82% 30.28 in 10.0 mi North 10.4 mph 17.3 mph N/A   Partly Cloudy
10:56 PM 43.0 °F 37.7 °F 41.0 °F 93% 30.27 in 10.0 mi North 9.2 mph - N/A   Clear
11:56 PM 42.1 °F 36.1 °F 39.9 °F 92% 30.26 in 10.0 mi North 10.4 mph - N/A   Clear